Time,TemperatureF,DewpointF,PressureIn,WindDirection,WindDirectionDegrees,WindSpeedMPH,WindSpeedGustMPH,Humidity,HourlyPrecipIn,Conditions,Clouds,dailyrainin,SoftwareType,DateUTC
2013-05-16 00:02:00,53.0,38.0,-100.00,North,9,2.0,4.0,56,-99.99,,,-99.99,,2013-05-16 07:02:00,
2013-05-16 00:12:00,54.0,36.0,-100.00,NNW,342,3.0,4.0,50,-99.99,,,-99.99,,2013-05-16 07:12:00,
2013-05-16 00:24:00,54.0,35.0,-100.00,North,5,3.0,5.0,49,-99.99,,,-99.99,,2013-05-16 07:24:00,
2013-05-16 00:34:00,52.0,35.0,-100.00,NNE,30,2.0,3.0,52,-99.99,,,-99.99,,2013-05-16 07:34:00,
2013-05-16 00:44:00,51.0,35.0,-100.00,NE,41,2.0,3.0,54,-99.99,,,-99.99,,2013-05-16 07:44:00,
2013-05-16 00:54:00,52.0,35.0,-100.00,NNE,22,3.0,4.0,52,-99.99,,,-99.99,,2013-05-16 07:54:00,
2013-05-16 01:03:00,50.0,34.0,-100.00,NNE,22,1.0,3.0,54,-99.99,,,-99.99,,2013-05-16 08:03:00,
2013-05-16 01:13:00,51.0,35.0,-100.00,NE,54,2.0,3.0,54,-99.99,,,-99.99,,2013-05-16 08:13:00,
2013-05-16 01:23:00,51.0,35.0,-100.00,NNE,33,2.0,3.0,54,-99.99,,,-99.99,,2013-05-16 08:23:00,
2013-05-16 01:34:00,51.0,34.0,-100.00,NE,45,2.0,2.0,52,-99.99,,,-99.99,,2013-05-16 08:34:00,
2013-05-16 01:44:00,50.0,34.0,-100.00,North,7,2.0,3.0,54,-99.99,,,-99.99,,2013-05-16 08:44:00,
2013-05-16 01:54:00,49.0,34.0,-100.00,North,357,3.0,4.0,55,-99.99,,,-99.99,,2013-05-16 08:54:00,
2013-05-16 02:04:00,50.0,34.0,-100.00,North,2,3.0,3.0,54,-99.99,,,-99.99,,2013-05-16 09:04:00,
2013-05-16 02:14:00,50.0,34.0,-100.00,North,2,3.0,3.0,54,-99.99,,,-99.99,,2013-05-16 09:14:00,
2013-05-16 02:24:00,50.0,34.0,-100.00,North,357,3.0,4.0,54,-99.99,,,-99.99,,2013-05-16 09:24:00,
2013-05-16 02:35:00,50.0,34.0,-100.00,North,8,3.0,4.0,53,-99.99,,,-99.99,,2013-05-16 09:35:00,
2013-05-16 02:45:00,50.0,34.0,-100.00,NNE,13,3.0,4.0,53,-99.99,,,-99.99,,2013-05-16 09:45:00,
2013-05-16 02:55:00,50.0,34.0,-100.00,North,357,4.0,5.0,53,-99.99,,,-99.99,,2013-05-16 09:55:00,
2013-05-16 03:04:00,50.0,34.0,-100.00,North,352,3.0,4.0,53,-99.99,,,-99.99,,2013-05-16 10:04:00,
2013-05-16 03:14:00,50.0,34.0,-100.00,North,358,3.0,4.0,53,-99.99,,,-99.99,,2013-05-16 10:14:00,
2013-05-16 03:24:00,50.0,34.0,-100.00,North,4,4.0,5.0,53,-99.99,,,-99.99,,2013-05-16 10:24:00,
2013-05-16 03:35:00,49.0,34.0,-100.00,NNE,12,3.0,4.0,55,-99.99,,,-99.99,,2013-05-16 10:35:00,
2013-05-16 03:45:00,48.0,34.0,-100.00,NNE,13,4.0,5.0,57,-99.99,,,-99.99,,2013-05-16 10:45:00,
2013-05-16 03:56:00,49.0,34.0,-100.00,North,356,4.0,5.0,56,-99.99,,,-99.99,,2013-05-16 10:56:00,
2013-05-16 04:05:00,49.0,34.0,-100.00,North,353,4.0,5.0,56,-99.99,,,-99.99,,2013-05-16 11:05:00,
2013-05-16 04:14:00,49.0,34.0,-100.00,North,0,5.0,6.0,57,-99.99,,,-99.99,,2013-05-16 11:14:00,
2013-05-16 04:25:00,48.0,34.0,-100.00,North,357,5.0,7.0,57,-99.99,,,-99.99,,2013-05-16 11:25:00,
2013-05-16 04:35:00,48.0,34.0,-100.00,North,356,4.0,5.0,58,-99.99,,,-99.99,,2013-05-16 11:35:00,
2013-05-16 04:46:00,48.0,34.0,-100.00,North,1,5.0,6.0,58,-99.99,,,-99.99,,2013-05-16 11:46:00,
2013-05-16 04:56:00,47.0,34.0,-100.00,North,4,4.0,5.0,60,-99.99,,,-99.99,,2013-05-16 11:56:00,
2013-05-16 05:06:00,47.0,34.0,-100.00,North,0,4.0,5.0,61,-99.99,,,-99.99,,2013-05-16 12:06:00,
2013-05-16 05:13:00,48.0,35.0,-100.00,North,356,5.0,5.0,60,-99.99,,,-99.99,,2013-05-16 12:13:00,
2013-05-16 05:23:00,48.0,34.0,-100.00,North,4,5.0,7.0,59,-99.99,,,-99.99,,2013-05-16 12:23:00,
2013-05-16 05:34:00,47.0,34.0,-100.00,NNE,19,3.0,6.0,61,-99.99,,,-99.99,,2013-05-16 12:34:00,
2013-05-16 05:45:00,46.0,34.0,-100.00,NNE,15,2.0,3.0,63,-99.99,,,-99.99,,2013-05-16 12:45:00,
2013-05-16 05:53:00,47.0,35.0,-100.00,North,357,3.0,4.0,62,-99.99,,,-99.99,,2013-05-16 12:53:00,
2013-05-16 06:04:00,47.0,34.0,-100.00,North,6,3.0,4.0,61,-99.99,,,-99.99,,2013-05-16 13:04:00,
2013-05-16 06:12:00,47.0,34.0,-100.00,North,1,3.0,4.0,61,-99.99,,,-99.99,,2013-05-16 13:12:00,
2013-05-16 06:26:00,46.0,33.0,-100.00,North,7,2.0,2.0,61,-99.99,,,-99.99,,2013-05-16 13:26:00,
2013-05-16 06:35:00,46.0,34.0,-100.00,NNE,29,2.0,3.0,62,-99.99,,,-99.99,,2013-05-16 13:35:00,
2013-05-16 06:43:00,46.0,33.0,-100.00,North,9,3.0,5.0,61,-99.99,,,-99.99,,2013-05-16 13:43:00,
2013-05-16 06:55:00,46.0,33.0,-100.00,North,6,4.0,5.0,61,-99.99,,,-99.99,,2013-05-16 13:55:00,
2013-05-16 07:05:00,46.0,33.0,-100.00,North,6,4.0,5.0,61,-99.99,,,-99.99,,2013-05-16 14:05:00,
2013-05-16 07:15:00,47.0,34.0,-100.00,NNE,28,2.0,2.0,60,-99.99,,,-99.99,,2013-05-16 14:15:00,
2013-05-16 07:23:00,48.0,34.0,-100.00,NNE,27,2.0,3.0,59,-99.99,,,-99.99,,2013-05-16 14:23:00,
2013-05-16 07:37:00,50.0,34.0,-100.00,NNE,31,1.0,2.0,55,-99.99,,,-99.99,,2013-05-16 14:37:00,
2013-05-16 07:47:00,53.0,35.0,-100.00,NNE,19,1.0,2.0,50,-99.99,,,-99.99,,2013-05-16 14:47:00,
2013-05-16 07:55:00,56.0,34.0,-100.00,NE,47,0.0,2.0,44,-99.99,,,-99.99,,2013-05-16 14:55:00,
2013-05-16 08:08:00,56.0,34.0,-100.00,NE,47,0.0,2.0,44,-99.99,,,-99.99,,2013-05-16 15:08:00,
2013-05-16 08:17:00,60.0,36.0,-100.00,ESE,105,0.0,1.0,40,-99.99,,,-99.99,,2013-05-16 15:17:00,
2013-05-16 08:28:00,61.0,35.0,-100.00,SSE,161,1.0,2.0,38,-99.99,,,-99.99,,2013-05-16 15:28:00,
2013-05-16 08:40:00,62.0,35.0,-100.00,South,182,0.0,3.0,36,-99.99,,,-99.99,,2013-05-16 15:40:00,
2013-05-16 08:50:00,65.0,33.0,-100.00,SSE,168,0.0,2.0,30,-99.99,,,-99.99,,2013-05-16 15:50:00,
2013-05-16 09:00:00,66.0,30.0,-100.00,ESE,115,1.0,3.0,26,-99.99,,,-99.99,,2013-05-16 16:00:00,
2013-05-16 09:09:00,67.0,30.0,-100.00,SE,143,1.0,2.0,25,-99.99,,,-99.99,,2013-05-16 16:09:00,
2013-05-16 09:19:00,67.0,31.0,-100.00,SE,131,2.0,4.0,26,-99.99,,,-99.99,,2013-05-16 16:19:00,
2013-05-16 09:30:00,67.0,29.0,-100.00,SSE,153,2.0,4.0,24,-99.99,,,-99.99,,2013-05-16 16:30:00,
2013-05-16 09:40:00,67.0,-99.9,-100.00,SSE,153,2.0,4.0,24,-99.99,,,-99.99,,2013-05-16 16:40:00,
2013-05-16 09:50:00,70.0,30.0,-100.00,ESE,113,2.0,5.0,23,-99.99,,,-99.99,,2013-05-16 16:50:00,
2013-05-16 10:00:00,69.0,31.0,-100.00,ESE,123,2.0,6.0,24,-99.99,,,-99.99,,2013-05-16 17:00:00,
2013-05-16 10:10:00,70.0,32.0,-100.00,South,186,3.0,8.0,24,-99.99,,,-99.99,,2013-05-16 17:10:00,
2013-05-16 10:20:00,70.0,33.0,-100.00,South,173,4.0,10.0,25,-99.99,,,-99.99,,2013-05-16 17:20:00,
2013-05-16 10:30:00,70.0,33.0,-100.00,South,173,4.0,10.0,25,-99.99,,,-99.99,,2013-05-16 17:30:00,
2013-05-16 10:40:00,72.0,33.0,-100.00,SE,138,7.0,12.0,24,-99.99,,,-99.99,,2013-05-16 17:40:00,
2013-05-16 10:50:00,73.0,-99.9,-100.00,South,181,8.0,15.0,22,-99.99,,,-99.99,,2013-05-16 17:50:00,
2013-05-16 11:00:00,74.0,-99.9,-100.00,SSW,203,9.0,13.0,21,-99.99,,,-99.99,,2013-05-16 18:00:00,
2013-05-16 11:10:00,73.0,32.0,-100.00,SSW,201,8.0,13.0,22,-99.99,,,-99.99,,2013-05-16 18:10:00,
2013-05-16 11:20:00,73.0,33.0,-100.00,South,188,10.0,15.0,23,-99.99,,,-99.99,,2013-05-16 18:20:00,
2013-05-16 11:30:00,-999.0,-99.9,-100.00,SSW,200,9.0,15.0,24,-99.99,,,-99.99,,2013-05-16 18:30:00,
2013-05-16 11:40:00,-999.0,-99.9,-100.00,South,174,10.0,16.0,26,-99.99,,,-99.99,,2013-05-16 18:40:00,
2013-05-16 11:50:00,-999.0,-99.9,-100.00,South,175,11.0,17.0,25,-99.99,,,-99.99,,2013-05-16 18:50:00,
2013-05-16 12:00:00,-999.0,-99.9,-100.00,South,178,12.0,19.0,27,-99.99,,,-99.99,,2013-05-16 19:00:00,
2013-05-16 12:10:00,73.0,38.0,-100.00,South,178,12.0,18.0,28,-99.99,,,-99.99,,2013-05-16 19:10:00,
2013-05-16 12:20:00,73.0,37.0,-100.00,South,180,12.0,17.0,27,-99.99,,,-99.99,,2013-05-16 19:20:00,
2013-05-16 12:30:00,73.0,37.0,-100.00,South,180,12.0,17.0,27,-99.99,,,-99.99,,2013-05-16 19:30:00,
2013-05-16 12:40:00,75.0,-99.9,-100.00,South,186,9.0,18.0,23,-99.99,,,-99.99,,2013-05-16 19:40:00,
2013-05-16 12:50:00,-999.0,-99.9,-100.00,South,189,13.0,19.0,21,-99.99,,,-99.99,,2013-05-16 19:50:00,
2013-05-16 13:00:00,75.0,-99.9,-100.00,SSW,197,12.0,18.0,19,-99.99,,,-99.99,,2013-05-16 20:00:00,
2013-05-16 13:10:00,-999.0,-99.9,-100.00,SSW,198,12.0,18.0,15,-99.99,,,-99.99,,2013-05-16 20:10:00,
2013-05-16 13:20:00,77.0,-99.9,-100.00,SW,231,8.0,14.0,12,-99.99,,,-99.99,,2013-05-16 20:20:00,
2013-05-16 13:40:00,-999.0,-99.9,-100.00,SW,224,10.0,19.0,12,-99.99,,,-99.99,,2013-05-16 20:40:00,
2013-05-16 13:50:00,76.0,25.0,-100.00,SSW,212,10.0,17.0,15,-99.99,,,-99.99,,2013-05-16 20:50:00,
2013-05-16 14:00:00,76.0,27.0,-100.00,SW,230,10.0,17.0,16,-99.99,,,-99.99,,2013-05-16 21:00:00,
2013-05-16 14:10:00,76.0,-99.9,-100.00,SW,230,9.0,15.0,18,-99.99,,,-99.99,,2013-05-16 21:10:00,
2013-05-16 14:20:00,76.0,29.0,-100.00,SW,232,9.0,16.0,18,-99.99,,,-99.99,,2013-05-16 21:20:00,
2013-05-16 14:29:00,76.0,33.0,-100.00,SW,225,8.0,14.0,21,-99.99,,,-99.99,,2013-05-16 21:29:00,
2013-05-16 14:30:00,76.0,37.0,-100.00,SW,222,10.0,18.0,24,-99.99,,,-99.99,,2013-05-16 21:30:00,
2013-05-16 14:38:00,77.0,29.0,-100.00,WSW,258,8.0,23.0,17,-99.99,,,-99.99,,2013-05-16 21:38:00,
2013-05-16 14:50:00,76.0,-99.9,-100.00,West,267,8.0,16.0,18,-99.99,,,-99.99,,2013-05-16 21:50:00,
2013-05-16 15:00:00,-999.0,-99.9,-100.00,SW,234,8.0,16.0,22,-99.99,,,-99.99,,2013-05-16 22:00:00,
2013-05-16 15:07:00,76.0,37.0,-100.00,SW,222,10.0,18.0,24,-99.99,,,-99.99,,2013-05-16 22:07:00,
2013-05-16 15:20:00,76.0,37.0,-100.00,SW,222,10.0,18.0,24,-99.99,,,-99.99,,2013-05-16 22:20:00,
2013-05-16 15:50:00,75.0,39.0,-100.00,SW,232,9.0,17.0,27,-99.99,,,-99.99,,2013-05-16 22:50:00,
2013-05-16 16:00:00,75.0,39.0,-100.00,SW,232,9.0,17.0,27,-99.99,,,-99.99,,2013-05-16 23:00:00,
2013-05-16 16:06:00,74.0,39.0,-100.00,WSW,240,10.0,18.0,28,-99.99,,,-99.99,,2013-05-16 23:06:00,
2013-05-16 16:16:00,74.0,39.0,-100.00,WSW,240,10.0,18.0,28,-99.99,,,-99.99,,2013-05-16 23:16:00,
2013-05-16 16:24:00,74.0,39.0,-100.00,WSW,240,10.0,18.0,28,-99.99,,,-99.99,,2013-05-16 23:24:00,
2013-05-16 16:34:00,74.0,35.0,-100.00,SW,230,11.0,16.0,24,-99.99,,,-99.99,,2013-05-16 23:34:00,
2013-05-16 16:45:00,74.0,35.0,-100.00,WSW,244,9.0,15.0,24,-99.99,,,-99.99,,2013-05-16 23:45:00,
2013-05-16 16:54:00,74.0,36.0,-100.00,WSW,242,9.0,14.0,25,-99.99,,,-99.99,,2013-05-16 23:54:00,
2013-05-16 17:02:00,73.0,36.0,-100.00,WSW,244,9.0,14.0,26,-99.99,,,-99.99,,2013-05-17 00:02:00,
2013-05-16 17:13:00,73.0,36.0,-100.00,WSW,245,9.0,15.0,26,-99.99,,,-99.99,,2013-05-17 00:13:00,
2013-05-16 17:22:00,73.0,37.0,-100.00,WSW,258,7.0,13.0,27,-99.99,,,-99.99,,2013-05-17 00:22:00,
2013-05-16 17:33:00,73.0,38.0,-100.00,WSW,257,7.0,11.0,28,-99.99,,,-99.99,,2013-05-17 00:33:00,
2013-05-16 17:43:00,72.0,41.0,-100.00,SW,216,10.0,14.0,32,-99.99,,,-99.99,,2013-05-17 00:43:00,
2013-05-16 17:52:00,71.0,37.0,-100.00,SSW,211,9.0,14.0,29,-99.99,,,-99.99,,2013-05-17 00:52:00,
2013-05-16 18:03:00,71.0,35.0,-100.00,SSW,211,10.0,15.0,27,-99.99,,,-99.99,,2013-05-17 01:03:00,
2013-05-16 18:12:00,71.0,33.0,-100.00,SSW,208,9.0,14.0,25,-99.99,,,-99.99,,2013-05-17 01:12:00,
2013-05-16 18:23:00,70.0,33.0,-100.00,SSW,198,10.0,14.0,25,-99.99,,,-99.99,,2013-05-17 01:23:00,
2013-05-16 18:31:00,70.0,34.0,-100.00,SSW,213,9.0,13.0,27,-99.99,,,-99.99,,2013-05-17 01:31:00,
2013-05-16 18:43:00,69.0,33.0,-100.00,SW,220,7.0,12.0,26,-99.99,,,-99.99,,2013-05-17 01:43:00,
2013-05-16 18:52:00,69.0,36.0,-100.00,SW,215,8.0,12.0,30,-99.99,,,-99.99,,2013-05-17 01:52:00,
2013-05-16 19:02:00,68.0,34.0,-100.00,SW,220,5.0,8.0,28,-99.99,,,-99.99,,2013-05-17 02:02:00,
2013-05-16 19:11:00,68.0,36.0,-100.00,WSW,257,5.0,9.0,31,-99.99,,,-99.99,,2013-05-17 02:11:00,
2013-05-16 19:32:00,66.0,34.0,-100.00,SW,232,6.0,10.0,30,-99.99,,,-99.99,,2013-05-17 02:32:00,
2013-05-16 19:41:00,65.0,35.0,-100.00,SW,221,3.0,5.0,33,-99.99,,,-99.99,,2013-05-17 02:41:00,
2013-05-16 19:52:00,64.0,37.0,-100.00,SW,216,4.0,5.0,36,-99.99,,,-99.99,,2013-05-17 02:52:00,
2013-05-16 20:01:00,63.0,36.0,-100.00,SSW,199,2.0,4.0,36,-99.99,,,-99.99,,2013-05-17 03:01:00,
2013-05-16 20:11:00,62.0,40.0,-100.00,SSW,202,4.0,6.0,44,-99.99,,,-99.99,,2013-05-17 03:11:00,
2013-05-16 20:22:00,61.0,41.0,-100.00,SW,219,4.0,7.0,47,-99.99,,,-99.99,,2013-05-17 03:22:00,
2013-05-16 20:33:00,60.0,43.0,-100.00,SSW,201,2.0,4.0,54,-99.99,,,-99.99,,2013-05-17 03:33:00,
2013-05-16 20:43:00,59.0,43.0,-100.00,SSE,160,0.0,1.0,56,-99.99,,,-99.99,,2013-05-17 03:43:00,
2013-05-16 20:53:00,58.0,45.0,-100.00,SE,139,3.0,5.0,61,-99.99,,,-99.99,,2013-05-17 03:53:00,
2013-05-16 21:02:00,57.0,46.0,-100.00,SE,131,2.0,4.0,66,-99.99,,,-99.99,,2013-05-17 04:02:00,
2013-05-16 21:13:00,56.0,46.0,-100.00,SSE,154,2.0,4.0,68,-99.99,,,-99.99,,2013-05-17 04:13:00,
2013-05-16 21:23:00,56.0,46.0,-100.00,WSW,252,1.0,3.0,70,-99.99,,,-99.99,,2013-05-17 04:23:00,
2013-05-16 21:33:00,56.0,46.0,-100.00,NW,315,1.0,2.0,70,-99.99,,,-99.99,,2013-05-17 04:33:00,
2013-05-16 21:43:00,55.0,45.0,-100.00,NNE,16,1.0,3.0,70,-99.99,,,-99.99,,2013-05-17 04:43:00,
2013-05-16 21:53:00,54.0,44.0,-100.00,North,352,3.0,4.0,68,-99.99,,,-99.99,,2013-05-17 04:53:00,
2013-05-16 22:02:00,54.0,43.0,-100.00,NNW,335,4.0,6.0,65,-99.99,,,-99.99,,2013-05-17 05:02:00,
2013-05-16 22:13:00,53.0,41.0,-100.00,NNW,331,3.0,5.0,64,-99.99,,,-99.99,,2013-05-17 05:13:00,
2013-05-16 22:21:00,53.0,40.0,-100.00,NNW,343,3.0,6.0,62,-99.99,,,-99.99,,2013-05-17 05:21:00,
2013-05-16 22:32:00,52.0,41.0,-100.00,North,4,3.0,5.0,65,-99.99,,,-99.99,,2013-05-17 05:32:00,
2013-05-16 22:42:00,51.0,40.0,-100.00,North,354,3.0,4.0,65,-99.99,,,-99.99,,2013-05-17 05:42:00,
2013-05-16 22:52:00,51.0,37.0,-100.00,NNW,343,4.0,5.0,58,-99.99,,,-99.99,,2013-05-17 05:52:00,
2013-05-16 23:01:00,51.0,37.0,-100.00,North,350,3.0,5.0,58,-99.99,,,-99.99,,2013-05-17 06:01:00,
2013-05-16 23:11:00,51.0,37.0,-100.00,NNW,345,3.0,5.0,58,-99.99,,,-99.99,,2013-05-17 06:11:00,
2013-05-16 23:21:00,50.0,36.0,-100.00,North,351,4.0,6.0,58,-99.99,,,-99.99,,2013-05-17 06:21:00,
2013-05-16 23:32:00,50.0,35.0,-100.00,NNW,328,3.0,5.0,57,-99.99,,,-99.99,,2013-05-17 06:32:00,
2013-05-16 23:42:00,50.0,36.0,-100.00,NNW,348,3.0,4.0,58,-99.99,,,-99.99,,2013-05-17 06:42:00,
2013-05-16 23:51:00,49.0,39.0,-100.00,NNE,19,2.0,3.0,69,-99.99,,,-99.99,,2013-05-17 06:51:00,